Location: Newark
(50.2306°N, 14.0814°E)
Time: 00:27:35
(UTC+00:00)

N. Korean satellite - Pass Details

Date: 10 December 2019
Orbit: 454 x 507 km, 97.2° (Epoch: 21 January)

Event Time Altitude Azimuth Distance (km) Brightness Sun altitude
Rises 17:12:38 0° 212° (SSW) 2,604 10.9 -19.9°
Reaches altitude 10° 17:15:35 10° 239° (WSW) 1,722 10.4 -20.4°
Maximum altitude 17:17:34 14° 271° (W) 1,494 10.0 -20.7°
Drops below altitude 10° 17:19:33 10° 303° (WNW) 1,722 9.9 -21.0°
Sets 17:22:31 0° 330° (NNW) 2,604 10.5 -21.5°
